Regional Weather Roundup
Issued by NWS

Home | Current Version | Previous Version | Graphics & Text | Print | Product List | Glossary On
Versions: 1 2 3 4 5 6 7 8 9 10 11 12 13 14 15 16 17 18 19 20 21 22 23 24 25 26 27 28 29 30 31 32 33 34 35 36 37 38 39 40 41 42 43 44 45 46 47 48 49 50
000
ASUS43 KOAX 300810
RWRNE

WEATHER ROUNDUP FOR NEBRASKA
NATIONAL WEATHER SERVICE OMAHA NE
300 AM CDT MON MAY 30 2016

NOTES: SATELLITE DATA IS BEING USED TO AUGMENT CLOUD COVER ABOVE
       12000 FEET.
       "FAIR" INDICATES FEW OR NO CLOUDS BELOW 12,000 FEET WITH NO
       SIGNIFICANT WEATHER AND/OR OBSTRUCTIONS TO VISIBILITY.

  * THESE STATIONS DO NOT REPORT WEATHER SUCH AS RAIN...SNOW OR FOG.

NEZ001>004-019>022-054>056-300900-
NEBRASKA PANHANDLE

CITY           SKY/WX    TMP DP  RH WIND       PRES   REMARKS
SCOTTSBLUFF    CLOUDY    59  50  72 SE10      30.02F
ALLIANCE       CLOUDY    56  51  84 S14       30.02F
CHADRON        CLOUDY    58  46  64 S14       29.96F
KIMBALL        CLOUDY    52  51  95 SW7       30.07F
SIDNEY         CLOUDY    56  49  77 S15       30.07F
$$

NEZ057>060-069>072-079>082-300900-
SOUTHWEST NEBRASKA

CITY           SKY/WX    TMP DP  RH WIND       PRES   REMARKS
NORTH PLATTE   CLOUDY    61  52  72 S9        29.98F
IMPERIAL       CLOUDY    59  51  75 SE6       30.02F
LEXINGTON      PTCLDY    64  51  62 SW9       30.02F
MCCOOK         CLOUDY    60  52  74 SE5       30.02F
OGALLALA       CLOUDY    60  50  69 SW13G18   30.01R
$$

NEZ005>010-023>029-035>040-094-300900-
NORTH CENTRAL NEBRASKA

CITY           SKY/WX    TMP DP  RH WIND       PRES   REMARKS
VALENTINE      CLOUDY    57  52  83 SE7       29.96F
AINSWORTH      CLOUDY    64  51  64 S9        29.96F
BROKEN BOW     CLOUDY    61  53  75 SW5       30.00F
O`NEILL        CLOUDY    65  58  77 SE6       29.99F
ORD            CLOUDY    64  52  64 SW12      29.96F
THEDFORD       MOCLDY    63  52  67 SW6       29.98F
$$

NEZ041-046>049-061>064-073>077-083>087-300900-
SOUTH CENTRAL NEBRASKA

CITY           SKY/WX    TMP DP  RH WIND       PRES   REMARKS
GRAND ISLAND   PTCLDY    64  52  64 SW10      29.98F
AURORA         PTCLDY    62  53  72 W5        29.98S
HASTINGS       PTCLDY    62  52  69 SW5       29.98F
HEBRON         MOCLDY    62  53  73 SW9       29.99R
HOLDREGE       MOCLDY    58  52  81 SE5       30.01F
KEARNEY *      PTCLDY    63  52  67 S8        30.01F
YORK           CLOUDY    64  52  63 W5        29.98S
$$

NEZ011>018-030>034-042>045-300900-
NORTHEAST NEBRASKA

CITY           SKY/WX    TMP DP  RH WIND       PRES   REMARKS
NORFOLK        CLOUDY    66  55  67 W7        29.98F
ALBION         CLOUDY    61  56  84 CALM      29.98F
BLAIR          MOCLDY    69  59  72 CALM      29.98F
FREMONT        CLOUDY    67  58  73 N3        29.98F
TEKAMAH          N/A    N/A N/A N/A MISG      29.98F
WAYNE          CLOUDY    62  58  88 CALM      30.00S
$$

NEZ050>053-065>068-078-088>093-300900-
SOUTHEAST NEBRASKA

CITY           SKY/WX    TMP DP  RH WIND       PRES   REMARKS
LINCOLN        MOCLDY    67  58  72 CALM      29.99F
OMAHA EPPLEY   CLOUDY    69  60  73 SE6       29.99S
BEATRICE       PTCLDY    65  59  80 S7        30.00S
FALLS CITY     PTCLDY    66  63  90 S3        30.00F
NEBRASKA CITY  CLOUDY    64  64  99 S6        29.99F
PLATTSMOUTH    MOCLDY    70  60  70 CALM      29.99F
$$

NEZ044-045-051>053-067-300900-
OMAHA AREA

CITY           SKY/WX    TMP DP  RH WIND       PRES   REMARKS
OMAHA EPPLEY   CLOUDY    69  60  73 SE6       29.99S
BLAIR          MOCLDY    69  59  72 CALM      29.98F
FREMONT        CLOUDY    67  58  73 N3        29.98F
MILLARD        CLOUDY    66  61  81 CALM      29.98F
OFFUTT AFB     CLOUDY    64  62  91 E3        29.98F
PLATTSMOUTH    MOCLDY    70  60  70 CALM      29.99F
WAHOO          FAIR      66  61  84 SE3       29.97F
$$




USA.gov is the U.S. government's official web portal to all federal, state and local government web resources and services.